Aérodrome :
LOGIN :

S'inscrire | Disclaimer

   EN    FR    IT 

 










Légende :    VFR   VFR Marginal   IFR   IFR Intensif   IFR Très Intensif
Visi : 
Plafond : 
>= 8 km
>= 3000ft
5 à 8 km
1000 à 3000 ft
1500m à 5 km
500 à 1000 ft
800 à 1500m
200 à 500 ft
< 800m
< 200 ft
Symboles :   Orages  Brouillard  Fortes neiges  Fortes précipitations  Vent > 20 kt
SIGMETs :   Divers  Orages  Givrage  Turbulence  Onde Orograph.  Cendres Volcan.






- Altitude de l'aérodrome : 36 ft
- Code IATA : LTQ


LFAT - Le Touquet

DERNIER METAR :
  • 100400Z AUTO 23007KT 190V270 9999 BKN003 OVC013 12/12 Q0999

METARs EXPIRÉS :
  • 100330Z AUTO 24008KT 200V270 9000 -RA BKN003/// BKN019/// BKN025/// ///TCU 12/12 Q0998
  • 100300Z AUTO 26007KT 6000 RA SCT005/// BKN027/// BKN033/// ///CB 12/12 Q0998
  • 100230Z AUTO 20008KT 160V250 9999 OVC004/// ///CB 13/13 Q0997
  • 100200Z AUTO 21006KT 170V260 5000 RA BR OVC005/// ///CB 14/13 Q0997
  • 100130Z AUTO 18006KT 130V210 7000 -RA BKN007/// BKN012/// OVC018/// ///TCU 14/14 Q0997

Prévision TAF périmée.
ATIS : +33 3 21 06 62 84



MET'MAP, la Météo Aéronautique d'un coup d'oeil ! - Copyright ORBIFLY Décembre 2007 - Disclaimer

ORBIFLY MET'MAP TEAM :

Programmation & Développement : Alexandra Zaïnal
Sur une idée originale de : Baudouin d'Aumeries
Assistance à la programmation : Marc-Olivier Méhu
Soutien technique & logistique : Manuel Goepfert

Contact : metmap@orbifly.com




SOURCES & CREDITS :

   NOAA